Location: Boulin
(43.2500°N, 0.1333°E)
Time: 05:48:32
(UTC+00:00)

Cosmos 1933 - Pass Details

Date: 19 March 2026
Orbit: 507 x 515 km, 82.5° (Epoch: 15 April)

Event Time Altitude Azimuth Distance (km) Brightness Sun altitude
Exits shadow 05:18:56 - 210° (SSW) 2,623 6.4 -9.2°
Rises 05:18:57 0° 210° (SSW) 2,619 6.4 -9.2°
Reaches altitude 10° 05:21:15 10° 221° (SW) 1,737 5.4 -8.7°
Maximum altitude 05:24:38 30° 284° (WNW) 941 4.0 -8.1°
Drops below altitude 10° 05:28:03 10° 347° (NNW) 1,747 5.8 -7.5°
Sets 05:30:23 0° 359° (N) 2,637 6.9 -7.1°
